IU7TPK-1 Weather Reports


time (UTC)temp
F
wind
direction
speed
knots
gust
knots
rain 1hr
in
rain 24hr
in
rain mn
in
humidity
%
barometer
mb
20260503230008 56 51 1.7 2.6 0.00 0.00 0.00 66 1017.0
20260503225005 57 51 0.0 2.6 0.00 0.00 0.00 66 1017.0
20260503224508 57 50 1.7 3.5 0.00 0.00 0.00 65 1017.0
20260503223506 57 48 2.6 3.5 0.00 0.00 0.00 65 1017.0
20260503222505 57 33 2.6 3.5 0.00 0.00 0.00 63 1017.0
20260503222006 58 324 1.7 2.6 0.00 0.00 0.00 63 1017.0
20260503221508 58 273 0.0 2.6 0.00 0.00 0.00 62 1017.0
20260503221006 58 273 0.0 2.6 0.00 0.00 0.00 62 1017.0
20260503220505 59 273 0.0 2.6 0.00 0.00 0.00 61 1017.0
20260503220008 59 272 0.0 2.6 0.00 0.00 0.00 61 1017.0
20260503215505 59 272 1.7 2.6 0.00 0.00 0.00 60 1017.0
20260503215006 60 271 0.0 1.7 0.00 0.00 0.00 60 1017.0
20260503213008 61 271 0.0 1.7 0.00 0.00 0.00 60 1017.0
20260503212005 61 271 0.0 1.7 0.00 0.00 0.00 60 1017.0
20260503211509 61 271 0.0 1.7 0.00 0.00 0.00 60 1017.0
20260503211006 61 271 0.0 2.6 0.00 0.00 0.00 60 1017.0
20260503210506 61 271 0.0 2.6 0.00 0.00 0.00 60 1017.0
20260503210009 61 271 0.0 1.7 0.00 0.00 0.00 60 1017.0
20260503205506 61 271 0.0 1.7 0.00 0.00 0.00 60 1017.0
20260503205006 61 271 0.0 2.6 0.00 0.00 0.00 60 1017.0
20260503204005 61 271 0.0 1.7 0.00 0.00 0.00 60 1017.0
20260503203506 61 271 0.0 1.7 0.00 0.00 0.00 60 1017.0
20260503202506 62 271 0.0 1.7 0.00 0.00 0.00 59 1017.0
20260503202006 62 271 0.0 1.7 0.00 0.00 0.00 59 1017.0
20260503201508 62 271 0.0 1.7 0.00 0.00 0.00 58 1017.0
20260503201006 62 271 0.0 1.7 0.00 0.00 0.00 59 1017.0
20260503200505 62 271 0.0 1.7 0.00 0.00 0.00 59 1017.0
20260503200008 62 271 0.0 1.7 0.00 0.00 0.00 59 1017.0
20260503195506 62 0 0.0 0.0 0.00 0.00 0.00 59 1017.0
20260503195006 62 0 0.0 0.0 0.00 0.00 0.00 58 1017.0
20260503194508 62 271 0.0 2.6 0.00 0.00 0.00 57 1017.0
20260503194006 62 271 0.0 2.6 0.00 0.00 0.00 56 1017.0
20260503193506 63 271 0.0 2.6 0.00 0.00 0.00 54 1016.0
20260503193008 63 264 0.0 2.6 0.00 0.00 0.00 53 1016.0
20260503192006 64 232 0.0 1.7 0.00 0.00 0.00 51 1016.0
20260503191508 64 233 0.0 1.7 0.00 0.00 0.00 47 1016.0
20260503191006 64 243 0.0 2.6 0.00 0.00 0.00 45 1016.0
20260503190505 64 246 0.0 2.6 0.00 0.00 0.00 44 1016.0
20260503190008 64 216 0.0 2.6 0.00 0.00 0.00 44 1016.0
20260503185506 64 178 0.0 3.5 0.00 0.00 0.00 44 1016.0
20260503185006 64 50 0.0 3.5 0.00 0.00 0.00 44 1016.0
20260503184508 64 39 0.0 3.5 0.00 0.00 0.00 44 1016.0
20260503184006 64 39 1.7 3.5 0.00 0.00 0.00 44 1016.0
20260503183506 65 30 1.7 2.6 0.00 0.00 0.00 43 1016.0
20260503183008 65 23 0.0 3.5 0.00 0.00 0.00 43 1016.0
20260503182505 66 23 0.0 3.5 0.00 0.00 0.00 42 1016.0
20260503182006 66 289 0.0 1.7 0.00 0.00 0.00 41 1016.0
20260503181508 66 289 0.0 1.7 0.00 0.00 0.00 40 1016.0
20260503180506 67 289 0.0 1.7 0.00 0.00 0.00 38 1016.0
20260503180008 67 289 0.0 1.7 0.00 0.00 0.00 38 1016.0
20260503175505 67 289 0.0 1.7 0.00 0.00 0.00 38 1016.0
20260503175006 67 0 0.0 0.0 0.00 0.00 0.00 38 1015.0
20260503174508 68 289 0.0 1.7 0.00 0.00 0.00 38 1015.0
20260503174005 68 289 0.0 1.7 0.00 0.00 0.00 38 1015.0
20260503173506 68 289 0.0 1.7 0.00 0.00 0.00 37 1015.0
20260503173008 68 290 0.0 2.6 0.00 0.00 0.00 37 1015.0
20260503172505 68 283 0.0 2.6 0.00 0.00 0.00 36 1015.0
20260503172006 68 278 1.7 2.6 0.00 0.00 0.00 36 1015.0
20260503171508 69 282 0.0 2.6 0.00 0.00 0.00 36 1015.0
20260503171006 69 292 0.0 2.6 0.00 0.00 0.00 36 1015.0
20260503170506 69 300 0.0 3.5 0.00 0.00 0.00 36 1015.0
20260503151005 74 320 2.6 6.1 0.00 0.00 0.00 34 1015.0
20260503131005 74 8 3.5 5.2 0.00 0.00 0.00 37 1016.0
20260503110506 73 18 4.3 7.0 0.00 0.00 0.00 37 1016.0
20260503090506 71 302 2.6 5.2 0.00 0.00 0.00 38 1016.0
20260503081005 68 297 3.5 5.2 0.00 0.00 0.00 44 1017.0
20260503080506 68 301 3.5 5.2 0.00 0.00 0.00 44 1017.0
20260503072505 66 297 3.5 7.0 0.00 0.00 0.00 45 1017.0
20260503071508 65 297 4.3 5.2 0.00 0.00 0.00 45 1016.0
20260503071006 65 298 4.3 7.0 0.00 0.00 0.00 45 1016.0
20260503070506 65 294 4.3 7.0 0.00 0.00 0.00 46 1017.0
20260503055006 62 303 3.5 7.8 0.00 0.00 0.00 46 1017.0
20260503054508 62 303 6.1 7.8 0.00 0.00 0.00 46 1017.0
20260503054006 61 307 3.5 6.1 0.00 0.00 0.00 46 1017.0
20260503053008 61 304 3.5 7.0 0.00 0.00 0.00 46 1017.0
20260503052506 61 308 2.6 6.1 0.00 0.00 0.00 46 1017.0
20260503052005 60 306 3.5 6.1 0.00 0.00 0.00 46 1017.0
20260503051005 60 307 3.5 5.2 0.00 0.00 0.00 46 1017.0
20260503050506 60 299 3.5 6.1 0.00 0.00 0.00 46 1017.0
20260503050008 59 303 3.5 6.1 0.00 0.00 0.00 46 1017.0
20260503045505 59 308 3.5 7.0 0.00 0.00 0.00 46 1017.0
20260503045005 59 306 4.3 7.0 0.00 0.00 0.00 46 1017.0
20260503044509 59 308 2.6 7.0 0.00 0.00 0.00 47 1017.0
20260503044005 59 314 2.6 5.2 0.00 0.00 0.00 47 1017.0
20260503043505 58 310 3.5 5.2 0.00 0.00 0.00 47 1017.0
20260503043008 58 306 3.5 7.0 0.00 0.00 0.00 47 1017.0
20260503042005 58 304 2.6 7.0 0.00 0.00 0.00 47 1016.0
20260503041508 58 308 3.5 5.2 0.00 0.00 0.00 47 1016.0
20260503041006 58 311 4.3 5.2 0.00 0.00 0.00 47 1016.0
20260503040008 58 307 4.3 7.0 0.00 0.00 0.00 47 1016.0
20260503034005 58 317 2.6 5.2 0.00 0.00 0.00 47 1016.0
20260503033506 58 313 2.6 5.2 0.00 0.00 0.00 47 1016.0
20260503033008 58 310 3.5 5.2 0.00 0.00 0.00 47 1016.0
20260503032505 58 312 3.5 5.2 0.00 0.00 0.00 47 1016.0
20260503031508 58 326 4.3 6.1 0.00 0.00 0.00 47 1016.0
20260503031006 58 317 3.5 6.1 0.00 0.00 0.00 47 1016.0
20260503025505 58 311 2.6 5.2 0.00 0.00 0.00 47 1016.0
20260503025005 58 309 2.6 5.2 0.00 0.00 0.00 47 1017.0
20260503024508 58 314 3.5 7.0 0.00 0.00 0.00 47 1017.0
20260503023506 58 309 2.6 6.1 0.00 0.00 0.00 47 1016.0
20260503023008 58 316 3.5 5.2 0.00 0.00 0.00 47 1016.0
20260503022506 58 320 3.5 5.2 0.00 0.00 0.00 47 1016.0
20260503021508 58 330 3.5 5.2 0.00 0.00 0.00 47 1017.0
20260503021005 57 326 3.5 5.2 0.00 0.00 0.00 47 1017.0
20260503020505 58 318 3.5 5.2 0.00 0.00 0.00 47 1017.0
20260503020008 57 315 3.5 5.2 0.00 0.00 0.00 47 1017.0
20260503015505 57 318 2.6 5.2 0.00 0.00 0.00 47 1017.0
20260503015006 57 325 3.5 7.0 0.00 0.00 0.00 47 1017.0
20260503014508 57 321 2.6 7.0 0.00 0.00 0.00 47 1017.0
20260503014006 57 312 2.6 5.2 0.00 0.00 0.00 47 1017.0
20260503013505 57 314 3.5 5.2 0.00 0.00 0.00 47 1017.0
20260503013008 57 314 2.6 5.2 0.00 0.00 0.00 46 1017.0
20260503012505 57 311 2.6 5.2 0.00 0.00 0.00 46 1017.0
20260503011508 57 311 2.6 5.2 0.00 0.00 0.00 46 1017.0
20260503011006 57 310 2.6 3.5 0.00 0.00 0.00 46 1017.0
20260503005005 58 302 2.6 5.2 0.00 0.00 0.00 46 1017.0
20260503004005 57 296 3.5 5.2 0.00 0.00 0.00 47 1017.0
20260503003505 58 299 3.5 5.2 0.00 0.00 0.00 47 1017.0
20260503003007 58 298 3.5 7.0 0.00 0.00 0.00 47 1017.0
20260503002505 57 296 3.5 7.0 0.00 0.00 0.00 47 1017.0
20260503002005 57 300 3.5 7.0 0.00 0.00 0.00 47 1017.0
20260503001508 57 296 3.5 7.0 0.00 0.00 0.00 47 1017.0
20260503001006 57 296 4.3 7.0 0.00 0.00 0.00 48 1017.0
20260503000505 57 298 3.5 6.1 0.00 0.00 0.00 48 1018.0
20260503000008 57 295 3.5 5.2 0.00 0.00 0.00 48 1018.0
20260502235506 57 297 3.5 5.2 0.00 0.00 0.00 48 1018.0
20260502235005 57 301 2.6 5.2 0.00 0.00 0.00 48 1018.0
20260502234508 57 303 2.6 5.2 0.00 0.00 0.00 48 1018.0
20260502234005 57 300 3.5 5.2 0.00 0.00 0.00 49 1018.0
20260502233506 58 300 3.5 5.2 0.00 0.00 0.00 49 1018.0
20260502233008 57 295 3.5 5.2 0.00 0.00 0.00 49 1018.0
20260502232505 58 294 3.5 5.2 0.00 0.00 0.00 49 1018.0
20260502232006 58 306 1.7 3.5 0.00 0.00 0.00 50 1018.0
20260502231508 58 308 2.6 5.2 0.00 0.00 0.00 50 1018.0
20260502231005 57 305 2.6 5.2 0.00 0.00 0.00 50 1018.0
20260502230506 57 307 2.6 4.3 0.00 0.00 0.00 51 1019.0